Year,Month,Day,Hour,Minute,Value (Times are PST for temperature in C)
2020,09,30,00,00,14.60
2020,09,30,00,01,14.60
2020,09,30,00,02,14.50
2020,09,30,00,03,14.40
2020,09,30,00,04,14.40
2020,09,30,00,05,14.40
2020,09,30,00,06,14.30
2020,09,30,00,07,14.30
2020,09,30,00,08,14.30
2020,09,30,00,09,14.20
2020,09,30,00,10,14.20
2020,09,30,00,11,14.20
2020,09,30,00,12,14.10
2020,09,30,00,13,14.10
2020,09,30,00,14,14.10
2020,09,30,00,15,14.10
2020,09,30,00,16,14.00
2020,09,30,00,17,14.00
2020,09,30,00,18,13.90
2020,09,30,00,19,13.90
2020,09,30,00,20,13.90
2020,09,30,00,21,13.90
2020,09,30,00,22,13.90
2020,09,30,00,23,13.80
2020,09,30,00,24,13.80
2020,09,30,00,25,13.80
2020,09,30,00,26,13.80
2020,09,30,00,27,13.80
2020,09,30,00,28,13.80
2020,09,30,00,29,13.80
2020,09,30,00,30,13.80
2020,09,30,00,31,13.80
2020,09,30,00,32,13.80
2020,09,30,00,33,13.80
2020,09,30,00,34,13.90
2020,09,30,00,35,13.90
2020,09,30,00,36,14.00
2020,09,30,00,37,14.00
2020,09,30,00,38,14.10
2020,09,30,00,39,14.10
2020,09,30,00,40,14.10
2020,09,30,00,41,14.10
2020,09,30,00,42,14.10
2020,09,30,00,43,14.10
2020,09,30,00,44,14.10
2020,09,30,00,45,14.10
2020,09,30,00,46,14.10
2020,09,30,00,47,14.00
2020,09,30,00,48,14.00
2020,09,30,00,49,13.90
2020,09,30,00,50,13.90
2020,09,30,00,51,13.90
2020,09,30,00,52,13.80
2020,09,30,00,53,13.80
2020,09,30,00,54,13.80
2020,09,30,00,55,13.80
2020,09,30,00,56,13.80
2020,09,30,00,57,13.90
2020,09,30,00,58,13.90
2020,09,30,00,59,13.90
2020,09,30,01,00,13.90
2020,09,30,01,01,13.90
2020,09,30,01,02,13.90
2020,09,30,01,03,13.90
2020,09,30,01,04,14.00
2020,09,30,01,05,14.00
2020,09,30,01,06,14.10
2020,09,30,01,07,14.10
2020,09,30,01,08,14.10
2020,09,30,01,09,14.10
2020,09,30,01,10,14.20
2020,09,30,01,11,14.20
2020,09,30,01,12,14.20
2020,09,30,01,13,14.20
2020,09,30,01,14,14.20
2020,09,30,01,15,14.10
2020,09,30,01,16,14.10
2020,09,30,01,17,14.10
2020,09,30,01,18,14.10
2020,09,30,01,19,14.10
2020,09,30,01,20,14.00
2020,09,30,01,21,14.00
2020,09,30,01,22,13.90
2020,09,30,01,23,13.90
2020,09,30,01,24,13.90
2020,09,30,01,25,13.90
2020,09,30,01,26,13.90
2020,09,30,01,27,13.90
2020,09,30,01,28,13.90
2020,09,30,01,29,14.00
2020,09,30,01,30,14.00
2020,09,30,01,31,14.00
2020,09,30,01,32,14.00
2020,09,30,01,33,13.90
2020,09,30,01,34,13.90
2020,09,30,01,35,14.00
2020,09,30,01,36,14.00
2020,09,30,01,37,14.00
2020,09,30,01,38,14.00
2020,09,30,01,39,14.00
2020,09,30,01,40,14.00
2020,09,30,01,41,14.00
2020,09,30,01,42,13.90
2020,09,30,01,43,13.90
2020,09,30,01,44,13.80
2020,09,30,01,45,13.80
2020,09,30,01,46,13.80
2020,09,30,01,47,13.70
2020,09,30,01,48,13.70
2020,09,30,01,49,13.60
2020,09,30,01,50,13.60
2020,09,30,01,51,13.60
2020,09,30,01,52,13.60
2020,09,30,01,53,13.60
2020,09,30,01,54,13.60
2020,09,30,01,55,13.60
2020,09,30,01,56,13.60
2020,09,30,01,57,13.60
2020,09,30,01,58,13.60
2020,09,30,01,59,13.60
2020,09,30,02,00,13.70
2020,09,30,02,01,13.70
2020,09,30,02,02,13.90
2020,09,30,02,03,13.90
2020,09,30,02,04,14.00
2020,09,30,02,05,14.10
2020,09,30,02,06,14.20
2020,09,30,02,07,14.30
2020,09,30,02,08,14.30
2020,09,30,02,09,14.30
2020,09,30,02,10,14.30
2020,09,30,02,11,14.40
2020,09,30,02,12,14.40
2020,09,30,02,13,14.40
2020,09,30,02,14,14.40
2020,09,30,02,15,14.40
2020,09,30,02,16,14.40
2020,09,30,02,17,14.40
2020,09,30,02,18,14.40
2020,09,30,02,19,14.40
2020,09,30,02,20,14.40
2020,09,30,02,21,14.40
2020,09,30,02,22,14.40
2020,09,30,02,23,14.40
2020,09,30,02,24,14.40
2020,09,30,02,25,14.40
2020,09,30,02,26,14.40
2020,09,30,02,27,14.50
2020,09,30,02,28,14.50
2020,09,30,02,29,14.60
2020,09,30,02,30,14.60
2020,09,30,02,31,14.60
2020,09,30,02,32,14.60
2020,09,30,02,33,14.60
2020,09,30,02,34,14.60
2020,09,30,02,35,14.60
2020,09,30,02,36,14.60
2020,09,30,02,37,14.60
2020,09,30,02,38,14.60
2020,09,30,02,39,14.60
2020,09,30,02,40,14.60
2020,09,30,02,41,14.60
2020,09,30,02,42,14.60
2020,09,30,02,43,14.50
2020,09,30,02,44,14.50
2020,09,30,02,45,14.40
2020,09,30,02,46,14.40
2020,09,30,02,47,14.30
2020,09,30,02,48,14.30
2020,09,30,02,49,14.30
2020,09,30,02,50,14.20
2020,09,30,02,51,14.20
2020,09,30,02,52,14.10
2020,09,30,02,53,14.10
2020,09,30,02,54,14.10
2020,09,30,02,55,14.10
2020,09,30,02,56,14.00
2020,09,30,02,57,14.00
2020,09,30,02,58,14.00
2020,09,30,02,59,14.00
2020,09,30,03,00,13.90
2020,09,30,03,01,13.90
2020,09,30,03,02,13.90
2020,09,30,03,03,13.90
2020,09,30,03,04,13.90
2020,09,30,03,05,13.90
2020,09,30,03,06,13.90
2020,09,30,03,07,13.90
2020,09,30,03,08,14.00
2020,09,30,03,09,14.00
2020,09,30,03,10,14.10
2020,09,30,03,11,14.20
2020,09,30,03,12,14.20
2020,09,30,03,13,14.30
2020,09,30,03,14,14.30
2020,09,30,03,15,14.30
2020,09,30,03,16,14.40
2020,09,30,03,17,14.40
2020,09,30,03,18,14.50
2020,09,30,03,19,14.50
2020,09,30,03,20,14.60
2020,09,30,03,21,14.60
2020,09,30,03,22,14.70
2020,09,30,03,23,14.70
2020,09,30,03,24,14.70
2020,09,30,03,25,14.80
2020,09,30,03,26,14.80
2020,09,30,03,27,14.80
2020,09,30,03,28,14.80
2020,09,30,03,29,14.80
2020,09,30,03,30,14.80
2020,09,30,03,31,14.80
2020,09,30,03,32,14.80
2020,09,30,03,33,14.80
2020,09,30,03,34,14.80
2020,09,30,03,35,14.80
2020,09,30,03,36,14.80
2020,09,30,03,37,14.80
2020,09,30,03,38,14.80
2020,09,30,03,39,14.80
2020,09,30,03,40,14.80
2020,09,30,03,41,14.80
2020,09,30,03,42,14.70
2020,09,30,03,43,14.70
2020,09,30,03,44,14.60
2020,09,30,03,45,14.50
2020,09,30,03,46,14.50
2020,09,30,03,47,14.40
2020,09,30,03,48,14.40
2020,09,30,03,49,14.40
2020,09,30,03,50,14.30
2020,09,30,03,51,14.30
2020,09,30,03,52,14.30
2020,09,30,03,53,14.30
2020,09,30,03,54,14.30
2020,09,30,03,55,14.30
2020,09,30,03,56,14.30
2020,09,30,03,57,14.30
2020,09,30,03,58,14.30
2020,09,30,03,59,14.30
2020,09,30,04,00,14.30
2020,09,30,04,01,14.30
2020,09,30,04,02,14.20
2020,09,30,04,03,14.20
2020,09,30,04,04,14.20
2020,09,30,04,05,14.10
2020,09,30,04,06,14.10
2020,09,30,04,07,14.10
2020,09,30,04,08,14.10
2020,09,30,04,09,14.00
2020,09,30,04,10,14.10
2020,09,30,04,11,14.10
2020,09,30,04,12,14.10
2020,09,30,04,13,14.10
2020,09,30,04,14,14.20
2020,09,30,04,15,14.20
2020,09,30,04,16,14.20
2020,09,30,04,17,14.20
2020,09,30,04,18,14.30
2020,09,30,04,19,14.30
2020,09,30,04,20,14.30
2020,09,30,04,21,14.30
2020,09,30,04,22,14.40
2020,09,30,04,23,14.40
2020,09,30,04,24,14.40
2020,09,30,04,25,14.40
2020,09,30,04,26,14.40
2020,09,30,04,27,14.40
2020,09,30,04,28,14.50
2020,09,30,04,29,14.50
2020,09,30,04,30,14.60
2020,09,30,04,31,14.60
2020,09,30,04,32,14.70
2020,09,30,04,33,14.70
2020,09,30,04,34,14.70
2020,09,30,04,35,14.80
2020,09,30,04,36,14.80
2020,09,30,04,37,14.90
2020,09,30,04,38,15.00
2020,09,30,04,39,15.00
2020,09,30,04,40,15.10
2020,09,30,04,41,15.10
2020,09,30,04,42,15.20
2020,09,30,04,43,15.20
2020,09,30,04,44,15.20
2020,09,30,04,45,15.20
2020,09,30,04,46,15.20
2020,09,30,04,47,15.20
2020,09,30,04,48,15.30
2020,09,30,04,49,15.30
2020,09,30,04,50,15.30
2020,09,30,04,51,15.30
2020,09,30,04,52,15.30
2020,09,30,04,53,15.30
2020,09,30,04,54,15.30
2020,09,30,04,55,15.30
2020,09,30,04,56,15.20
2020,09,30,04,57,15.20
2020,09,30,04,58,15.20
2020,09,30,04,59,15.20
2020,09,30,05,00,15.20
2020,09,30,05,01,15.20
2020,09,30,05,02,15.20
2020,09,30,05,03,15.20
2020,09,30,05,04,15.20
2020,09,30,05,05,15.10
2020,09,30,05,06,15.20
2020,09,30,05,07,15.20
2020,09,30,05,08,15.20
2020,09,30,05,09,15.20
2020,09,30,05,10,15.20
2020,09,30,05,11,15.20
2020,09,30,05,12,15.20
2020,09,30,05,13,15.20
2020,09,30,05,14,15.20
2020,09,30,05,15,15.20
2020,09,30,05,16,15.20
2020,09,30,05,17,15.20
2020,09,30,05,18,15.20
2020,09,30,05,19,15.20
2020,09,30,05,20,15.20
2020,09,30,05,21,15.20
2020,09,30,05,22,15.20
2020,09,30,05,23,15.10
2020,09,30,05,24,15.10
2020,09,30,05,25,15.00
2020,09,30,05,26,14.90
2020,09,30,05,27,14.90
2020,09,30,05,28,14.80
2020,09,30,05,29,14.80
2020,09,30,05,30,14.70
2020,09,30,05,31,14.70
2020,09,30,05,32,14.60
2020,09,30,05,33,14.60
2020,09,30,05,34,14.50
2020,09,30,05,35,14.50
2020,09,30,05,36,14.50
2020,09,30,05,37,14.40
2020,09,30,05,38,14.30
2020,09,30,05,39,14.30
2020,09,30,05,40,14.20
2020,09,30,05,41,14.20
2020,09,30,05,42,14.20
2020,09,30,05,43,14.20
2020,09,30,05,44,14.10
2020,09,30,05,45,14.10
2020,09,30,05,46,14.00
2020,09,30,05,47,14.00
2020,09,30,05,48,14.00
2020,09,30,05,49,13.90
2020,09,30,05,50,13.90
2020,09,30,05,51,13.80
2020,09,30,05,52,13.80
2020,09,30,05,53,13.80
2020,09,30,05,54,13.80
2020,09,30,05,55,13.80
2020,09,30,05,56,13.80
2020,09,30,05,57,13.80
2020,09,30,05,58,13.70
2020,09,30,05,59,13.70
2020,09,30,06,00,13.70
2020,09,30,06,01,13.70
2020,09,30,06,02,13.70
2020,09,30,06,03,13.70
2020,09,30,06,04,13.70
2020,09,30,06,05,13.70
2020,09,30,06,06,13.70
2020,09,30,06,07,13.60
2020,09,30,06,08,13.60
2020,09,30,06,09,13.60
2020,09,30,06,10,13.60
2020,09,30,06,11,13.60
2020,09,30,06,12,13.60
2020,09,30,06,13,13.60
2020,09,30,06,14,13.60
2020,09,30,06,15,13.60
2020,09,30,06,16,13.50
2020,09,30,06,17,13.50
2020,09,30,06,18,13.50
2020,09,30,06,19,13.50
2020,09,30,06,20,13.50
2020,09,30,06,21,13.40
2020,09,30,06,22,13.40
2020,09,30,06,23,13.40
2020,09,30,06,24,13.40
2020,09,30,06,25,13.40
2020,09,30,06,26,13.30
2020,09,30,06,27,13.30
2020,09,30,06,28,13.30
2020,09,30,06,29,13.30
2020,09,30,06,30,13.30
2020,09,30,06,31,13.20
2020,09,30,06,32,13.20
2020,09,30,06,33,13.20
2020,09,30,06,34,13.20
2020,09,30,06,35,13.10
2020,09,30,06,36,13.10
2020,09,30,06,37,13.10
2020,09,30,06,38,13.10
2020,09,30,06,39,13.10
2020,09,30,06,40,13.10
2020,09,30,06,41,13.10
2020,09,30,06,42,13.10
2020,09,30,06,43,13.00
2020,09,30,06,44,13.00
2020,09,30,06,45,13.00
2020,09,30,06,46,13.00
2020,09,30,06,47,12.90
2020,09,30,06,48,12.90
2020,09,30,06,49,12.90
2020,09,30,06,50,12.90
2020,09,30,06,51,12.90
2020,09,30,06,52,12.90
2020,09,30,06,53,12.90
2020,09,30,06,54,12.90
2020,09,30,06,55,12.90
2020,09,30,06,56,12.90
2020,09,30,06,57,12.90
2020,09,30,06,58,13.00
2020,09,30,06,59,13.00
2020,09,30,07,00,13.00
2020,09,30,07,01,12.90
2020,09,30,07,02,13.00
2020,09,30,07,03,13.10
2020,09,30,07,04,13.20
2020,09,30,07,05,13.30
2020,09,30,07,06,13.40
2020,09,30,07,07,13.50
2020,09,30,07,08,13.50
2020,09,30,07,09,13.60
2020,09,30,07,10,13.60
2020,09,30,07,11,13.60
2020,09,30,07,12,13.70
2020,09,30,07,13,13.70
2020,09,30,07,14,13.70
2020,09,30,07,15,13.70
2020,09,30,07,16,13.70
2020,09,30,07,17,13.70
2020,09,30,07,18,13.70
2020,09,30,07,19,13.70
2020,09,30,07,20,13.70
2020,09,30,07,21,13.60
2020,09,30,07,22,13.60
2020,09,30,07,23,13.60
2020,09,30,07,24,13.60
2020,09,30,07,25,13.60
2020,09,30,07,26,13.60
2020,09,30,07,27,13.60
2020,09,30,07,28,13.60
2020,09,30,07,29,13.60
2020,09,30,07,30,13.60
2020,09,30,07,31,13.70
2020,09,30,07,32,13.70
2020,09,30,07,33,13.80
2020,09,30,07,34,13.80
2020,09,30,07,35,13.90
2020,09,30,07,36,13.90
2020,09,30,07,37,13.90
2020,09,30,07,38,14.00
2020,09,30,07,39,14.10
2020,09,30,07,40,14.10
2020,09,30,07,41,14.20
2020,09,30,07,42,14.20
2020,09,30,07,43,14.20
2020,09,30,07,44,14.20
2020,09,30,07,45,14.20
2020,09,30,07,46,14.20
2020,09,30,07,47,14.20
2020,09,30,07,48,14.30
2020,09,30,07,49,14.30
2020,09,30,07,50,14.30
2020,09,30,07,51,14.30
2020,09,30,07,52,14.30
2020,09,30,07,53,14.30
2020,09,30,07,54,14.30
2020,09,30,07,55,14.30
2020,09,30,07,56,14.30
2020,09,30,07,57,14.30
2020,09,30,07,58,14.30
2020,09,30,07,59,14.30
2020,09,30,08,00,14.30
2020,09,30,08,01,14.30
2020,09,30,08,02,14.40
2020,09,30,08,03,14.40
2020,09,30,08,04,14.50
2020,09,30,08,05,14.60
2020,09,30,08,06,14.60
2020,09,30,08,07,14.70
2020,09,30,08,08,14.70
2020,09,30,08,09,14.80
2020,09,30,08,10,14.80
2020,09,30,08,11,14.80
2020,09,30,08,12,14.80
2020,09,30,08,13,14.80
2020,09,30,08,14,14.80
2020,09,30,08,15,14.80
2020,09,30,08,16,14.80
2020,09,30,08,17,14.70
2020,09,30,08,18,14.70
2020,09,30,08,19,14.70
2020,09,30,08,20,14.70
2020,09,30,08,21,14.70
2020,09,30,08,22,14.70
2020,09,30,08,23,14.70
2020,09,30,08,24,14.60
2020,09,30,08,25,14.70
2020,09,30,08,26,14.70
2020,09,30,08,27,14.70
2020,09,30,08,28,14.70
2020,09,30,08,29,14.70
2020,09,30,08,30,14.70
2020,09,30,08,31,14.70
2020,09,30,08,32,14.70
2020,09,30,08,33,14.80
2020,09,30,08,34,14.80
2020,09,30,08,35,14.80
2020,09,30,08,36,14.80
2020,09,30,08,37,14.80
2020,09,30,08,38,14.80
2020,09,30,08,39,14.80
2020,09,30,08,40,14.80
2020,09,30,08,41,14.80
2020,09,30,08,42,14.90
2020,09,30,08,43,14.90
2020,09,30,08,44,14.90
2020,09,30,08,45,14.90
2020,09,30,08,46,14.90
2020,09,30,08,47,14.90
2020,09,30,08,48,14.90
2020,09,30,08,49,14.90
2020,09,30,08,50,14.80
2020,09,30,08,51,14.80
2020,09,30,08,52,14.80
2020,09,30,08,53,14.80
2020,09,30,08,54,14.80
2020,09,30,08,55,14.80
2020,09,30,08,56,14.80
2020,09,30,08,57,14.70
2020,09,30,08,58,14.70
2020,09,30,08,59,14.70
2020,09,30,09,00,14.60
2020,09,30,09,01,14.60
2020,09,30,09,02,14.60
2020,09,30,09,03,14.60
2020,09,30,09,04,14.60
2020,09,30,09,05,14.60
2020,09,30,09,06,14.60
2020,09,30,09,07,14.60
2020,09,30,09,08,14.60
2020,09,30,09,09,14.50
2020,09,30,09,10,14.50
2020,09,30,09,11,14.50
2020,09,30,09,12,14.40
2020,09,30,09,13,14.40
2020,09,30,09,14,14.40
2020,09,30,09,15,14.40
2020,09,30,09,16,14.30
2020,09,30,09,17,14.30
2020,09,30,09,18,14.30
2020,09,30,09,19,14.30
2020,09,30,09,20,14.30
2020,09,30,09,21,14.30
2020,09,30,09,22,14.30
2020,09,30,09,23,14.30
2020,09,30,09,24,14.30
2020,09,30,09,25,14.30
2020,09,30,09,26,14.20
2020,09,30,09,27,14.20
2020,09,30,09,28,14.20
2020,09,30,09,29,14.20
2020,09,30,09,30,14.20
2020,09,30,09,31,14.20
2020,09,30,09,32,14.20
2020,09,30,09,33,14.20
2020,09,30,09,34,14.20
2020,09,30,09,35,14.20
2020,09,30,09,36,14.20
2020,09,30,09,37,14.30
2020,09,30,09,38,14.30
2020,09,30,09,39,14.30
2020,09,30,09,40,14.40
2020,09,30,09,41,14.40
2020,09,30,09,42,14.40
2020,09,30,09,43,14.50
2020,09,30,09,44,14.60
2020,09,30,09,45,14.60
2020,09,30,09,46,14.60
2020,09,30,09,47,14.60
2020,09,30,09,48,14.60
2020,09,30,09,49,14.60
2020,09,30,09,50,14.60
2020,09,30,09,51,14.70
2020,09,30,09,52,14.90
2020,09,30,09,53,14.90
2020,09,30,09,54,14.90
2020,09,30,09,55,15.00
2020,09,30,09,56,15.10
2020,09,30,09,57,15.20
2020,09,30,09,58,15.20
2020,09,30,09,59,15.30
2020,09,30,10,00,15.30
2020,09,30,10,01,15.40
2020,09,30,10,02,15.40
2020,09,30,10,03,15.50
2020,09,30,10,04,15.50
2020,09,30,10,05,15.60
2020,09,30,10,06,15.70
2020,09,30,10,07,15.70
2020,09,30,10,08,15.70
2020,09,30,10,09,15.80
2020,09,30,10,10,15.90
2020,09,30,10,11,15.90
2020,09,30,10,12,15.90
2020,09,30,10,13,16.00
2020,09,30,10,14,16.00
2020,09,30,10,15,16.10
2020,09,30,10,16,16.10
2020,09,30,10,17,16.20
2020,09,30,10,18,16.20
2020,09,30,10,19,16.20
2020,09,30,10,20,16.30
2020,09,30,10,21,16.30
2020,09,30,10,22,16.30
2020,09,30,10,23,16.40
2020,09,30,10,24,16.40
2020,09,30,10,25,16.50
2020,09,30,10,26,16.50
2020,09,30,10,27,16.60
2020,09,30,10,28,16.60
2020,09,30,10,29,16.60
2020,09,30,10,30,16.60
2020,09,30,10,31,16.60
2020,09,30,10,32,16.70
2020,09,30,10,33,16.70
2020,09,30,10,34,16.70
2020,09,30,10,35,16.70
2020,09,30,10,36,16.80
2020,09,30,10,37,16.80
2020,09,30,10,38,16.80
2020,09,30,10,39,16.80
2020,09,30,10,40,16.80
2020,09,30,10,41,16.80
2020,09,30,10,42,16.80
2020,09,30,10,43,16.90
2020,09,30,10,44,16.90
2020,09,30,10,45,16.90
2020,09,30,10,46,17.00
2020,09,30,10,47,17.00
2020,09,30,10,48,17.10
2020,09,30,10,49,17.10
2020,09,30,10,50,17.10
2020,09,30,10,51,17.10
2020,09,30,10,52,17.20
2020,09,30,10,53,17.20
2020,09,30,10,54,17.20
2020,09,30,10,55,17.20
2020,09,30,10,56,17.30
2020,09,30,10,57,17.30
2020,09,30,10,58,17.40
2020,09,30,10,59,17.40
2020,09,30,11,00,17.40
2020,09,30,11,01,17.40
2020,09,30,11,02,17.40
2020,09,30,11,03,17.40
2020,09,30,11,04,17.40
2020,09,30,11,05,17.40
2020,09,30,11,06,17.40
2020,09,30,11,07,17.40
2020,09,30,11,08,17.40
2020,09,30,16,48,21.70
2020,09,30,16,49,21.80
2020,09,30,16,50,21.80
2020,09,30,16,51,21.80
2020,09,30,16,52,21.80
2020,09,30,16,53,21.80
2020,09,30,16,54,21.80
2020,09,30,16,55,21.80
2020,09,30,16,56,21.80
2020,09,30,16,57,21.80
2020,09,30,16,58,21.80
2020,09,30,16,59,21.80
2020,09,30,17,00,21.80
2020,09,30,17,01,21.90
2020,09,30,17,02,21.90
2020,09,30,17,03,21.90
2020,09,30,17,04,22.00
2020,09,30,17,05,22.00
2020,09,30,17,06,22.00
2020,09,30,17,07,22.10
2020,09,30,17,08,22.10
2020,09,30,17,09,22.10
2020,09,30,17,10,22.10
2020,09,30,17,11,22.20
2020,09,30,17,12,22.20
2020,09,30,17,13,22.20
2020,09,30,17,14,22.20
2020,09,30,17,15,22.20
2020,09,30,17,16,22.30
2020,09,30,17,17,22.30
2020,09,30,17,18,22.30
2020,09,30,17,19,22.30
2020,09,30,17,20,22.40
2020,09,30,17,21,22.40
2020,09,30,17,22,22.40
2020,09,30,17,23,22.30
2020,09,30,17,24,22.30
2020,09,30,17,25,22.20
2020,09,30,17,26,22.10
2020,09,30,17,27,22.10
2020,09,30,17,28,22.10
2020,09,30,17,29,22.00
2020,09,30,17,30,22.00
2020,09,30,17,31,21.90
2020,09,30,17,32,21.90
2020,09,30,17,33,21.80
2020,09,30,17,34,21.80
2020,09,30,17,35,21.80
2020,09,30,17,36,21.70
2020,09,30,17,37,21.70
2020,09,30,17,38,21.70
2020,09,30,17,39,21.70
2020,09,30,17,40,21.70
2020,09,30,17,41,21.70
2020,09,30,17,42,21.70
2020,09,30,17,43,21.70
2020,09,30,17,44,21.70
2020,09,30,17,45,21.70
2020,09,30,17,46,21.80
2020,09,30,17,47,21.80
2020,09,30,17,48,21.80
2020,09,30,17,49,21.70
2020,09,30,17,50,21.70
2020,09,30,17,51,21.60
2020,09,30,17,52,21.60
2020,09,30,17,53,21.60
2020,09,30,17,54,21.60
2020,09,30,17,55,21.60
2020,09,30,17,56,21.50
2020,09,30,17,57,21.50
2020,09,30,17,58,21.40
2020,09,30,17,59,21.30
2020,09,30,18,00,21.30
2020,09,30,18,01,21.20
2020,09,30,18,02,21.10
2020,09,30,18,03,21.10
2020,09,30,18,04,21.10
2020,09,30,18,05,21.00
2020,09,30,18,06,21.00
2020,09,30,18,07,21.00
2020,09,30,18,08,20.90
2020,09,30,18,09,20.80
2020,09,30,18,10,20.80
2020,09,30,18,11,20.80
2020,09,30,18,12,20.70
2020,09,30,18,13,20.70
2020,09,30,18,14,20.60
2020,09,30,18,15,20.60
2020,09,30,18,16,20.60
2020,09,30,18,17,20.50
2020,09,30,18,18,20.40
2020,09,30,18,19,20.40
2020,09,30,18,20,20.30
2020,09,30,18,21,20.30
2020,09,30,18,22,20.20
2020,09,30,18,23,20.20
2020,09,30,18,24,20.10
2020,09,30,18,25,20.00
2020,09,30,18,26,20.00
2020,09,30,18,27,19.90
2020,09,30,18,28,19.90
2020,09,30,18,29,19.80
2020,09,30,18,30,19.80
2020,09,30,18,31,19.70
2020,09,30,18,32,19.70
2020,09,30,18,33,19.70
2020,09,30,18,34,19.60
2020,09,30,18,35,19.50
2020,09,30,18,36,19.50
2020,09,30,18,37,19.40
2020,09,30,18,38,19.40
2020,09,30,18,39,19.30
2020,09,30,18,40,19.30
2020,09,30,18,41,19.30
2020,09,30,18,42,19.20
2020,09,30,18,43,19.10
2020,09,30,18,44,19.10
2020,09,30,18,45,19.00
2020,09,30,18,46,19.00
2020,09,30,18,47,19.00
2020,09,30,18,48,18.90
2020,09,30,18,49,18.90
2020,09,30,18,50,18.80
2020,09,30,18,51,18.80
2020,09,30,18,52,18.80
2020,09,30,18,53,18.70
2020,09,30,18,54,18.70
2020,09,30,18,55,18.60
2020,09,30,18,56,18.60
2020,09,30,18,57,18.60
2020,09,30,18,58,18.60
2020,09,30,18,59,18.50
2020,09,30,19,00,18.50
2020,09,30,19,01,18.50
2020,09,30,19,02,18.50
2020,09,30,19,03,18.40
2020,09,30,19,04,18.40
2020,09,30,19,05,18.40
2020,09,30,19,06,18.40
2020,09,30,19,07,18.30
2020,09,30,19,08,18.30
2020,09,30,19,09,18.30
2020,09,30,19,10,18.30
2020,09,30,19,11,18.20
2020,09,30,19,12,18.20
2020,09,30,19,13,18.20
2020,09,30,19,14,18.20
2020,09,30,19,15,18.10
2020,09,30,19,16,18.10
2020,09,30,19,17,18.10
2020,09,30,19,18,18.10
2020,09,30,19,19,18.10
2020,09,30,19,20,18.00
2020,09,30,19,21,18.00
2020,09,30,19,22,17.90
2020,09,30,19,23,17.90
2020,09,30,19,24,17.90
2020,09,30,19,25,17.80
2020,09,30,19,26,17.80
2020,09,30,19,27,17.80
2020,09,30,19,28,17.80
2020,09,30,19,29,17.80
2020,09,30,19,30,17.70
2020,09,30,19,31,17.70
2020,09,30,19,32,17.70
2020,09,30,19,33,17.70
2020,09,30,19,34,17.60
2020,09,30,19,35,17.60
2020,09,30,19,36,17.60
2020,09,30,19,37,17.50
2020,09,30,19,38,17.50
2020,09,30,19,39,17.40
2020,09,30,19,40,17.40
2020,09,30,19,41,17.40
2020,09,30,19,42,17.40
2020,09,30,19,43,17.30
2020,09,30,19,44,17.30
2020,09,30,19,45,17.30
2020,09,30,19,46,17.30
2020,09,30,19,47,17.30
2020,09,30,19,48,17.20
2020,09,30,19,49,17.20
2020,09,30,19,50,17.20
2020,09,30,19,51,17.20
2020,09,30,19,52,17.20
2020,09,30,19,53,17.20
2020,09,30,19,54,17.20
2020,09,30,19,55,17.10
2020,09,30,19,56,17.10
2020,09,30,19,57,17.10
2020,09,30,19,58,17.00
2020,09,30,19,59,17.00
2020,09,30,20,00,17.00
2020,09,30,20,01,16.90
2020,09,30,20,02,16.90
2020,09,30,20,03,16.90
2020,09,30,20,04,16.80
2020,09,30,20,05,16.80
2020,09,30,20,06,16.80
2020,09,30,20,07,16.70
2020,09,30,20,08,16.70
2020,09,30,20,09,16.70
2020,09,30,20,10,16.60
2020,09,30,20,11,16.60
2020,09,30,20,12,16.60
2020,09,30,20,13,16.60
2020,09,30,20,14,16.60
2020,09,30,20,15,16.60
2020,09,30,20,16,16.60
2020,09,30,20,17,16.60
2020,09,30,20,18,16.60
2020,09,30,20,19,16.60
2020,09,30,20,20,16.60
2020,09,30,20,21,16.60
2020,09,30,20,22,16.60
2020,09,30,20,23,16.60
2020,09,30,20,24,16.60
2020,09,30,20,25,16.60
2020,09,30,20,26,16.60
2020,09,30,20,27,16.60
2020,09,30,20,28,16.50
2020,09,30,20,29,16.50
2020,09,30,20,30,16.50
2020,09,30,20,31,16.50
2020,09,30,20,32,16.50
2020,09,30,20,33,16.50
2020,09,30,20,34,16.50
2020,09,30,20,35,16.50
2020,09,30,20,36,16.50
2020,09,30,20,37,16.50
2020,09,30,20,38,16.60
2020,09,30,20,39,16.60
2020,09,30,20,40,16.60
2020,09,30,20,41,16.60
2020,09,30,20,42,16.60
2020,09,30,20,43,16.60
2020,09,30,20,44,16.50
2020,09,30,20,45,16.50
2020,09,30,20,46,16.50
2020,09,30,20,47,16.50
2020,09,30,20,48,16.50
2020,09,30,20,49,16.50
2020,09,30,20,50,16.50
2020,09,30,20,51,16.50
2020,09,30,20,52,16.50
2020,09,30,20,53,16.40
2020,09,30,20,54,16.40
2020,09,30,20,55,16.40
2020,09,30,20,56,16.40
2020,09,30,20,57,16.40
2020,09,30,20,58,16.40
2020,09,30,20,59,16.30
2020,09,30,21,00,16.30
2020,09,30,21,01,16.30
2020,09,30,21,02,16.30
2020,09,30,21,03,16.30
2020,09,30,21,04,16.30
2020,09,30,21,05,16.30
2020,09,30,21,06,16.30
2020,09,30,21,07,16.30
2020,09,30,21,08,16.30
2020,09,30,21,09,16.20
2020,09,30,21,10,16.20
2020,09,30,21,11,16.20
2020,09,30,21,12,16.20
2020,09,30,21,13,16.20
2020,09,30,21,14,16.20
2020,09,30,21,15,16.20
2020,09,30,21,16,16.20
2020,09,30,21,17,16.20
2020,09,30,21,18,16.10
2020,09,30,21,19,16.10
2020,09,30,21,20,16.10
2020,09,30,21,21,16.10
2020,09,30,21,22,16.00
2020,09,30,21,23,16.00
2020,09,30,21,24,16.00
2020,09,30,21,25,15.90
2020,09,30,21,26,15.90
2020,09,30,21,27,15.90
2020,09,30,21,28,15.90
2020,09,30,21,29,15.90
2020,09,30,21,30,15.80
2020,09,30,21,31,15.80
2020,09,30,21,32,15.80
2020,09,30,21,33,15.80
2020,09,30,21,34,15.80
2020,09,30,21,35,15.70
2020,09,30,21,36,15.70
2020,09,30,21,37,15.70
2020,09,30,21,38,15.70
2020,09,30,21,39,15.70
2020,09,30,21,40,15.70
2020,09,30,21,41,15.60
2020,09,30,21,42,15.60
2020,09,30,21,43,15.60
2020,09,30,21,44,15.60
2020,09,30,21,45,15.60
2020,09,30,21,46,15.60
2020,09,30,21,47,15.60
2020,09,30,21,48,15.50
2020,09,30,21,49,15.50
2020,09,30,21,50,15.50
2020,09,30,21,51,15.50
2020,09,30,21,52,15.50
2020,09,30,21,53,15.40
2020,09,30,21,54,15.40
2020,09,30,21,55,15.40
2020,09,30,21,56,15.40
2020,09,30,21,57,15.40
2020,09,30,21,58,15.30
2020,09,30,21,59,15.30
2020,09,30,22,00,15.20
2020,09,30,22,01,15.10
2020,09,30,22,02,15.00
2020,09,30,22,03,14.80
2020,09,30,22,04,14.80
2020,09,30,22,05,14.70
2020,09,30,22,06,14.50
2020,09,30,22,07,14.40
2020,09,30,22,08,14.40
2020,09,30,22,09,14.30
2020,09,30,22,10,14.20
2020,09,30,22,11,14.20
2020,09,30,22,12,14.00
2020,09,30,22,13,14.00
2020,09,30,22,14,13.90
2020,09,30,22,15,13.80
2020,09,30,22,16,13.70
2020,09,30,22,17,13.70
2020,09,30,22,18,13.60
2020,09,30,22,19,13.60
2020,09,30,22,20,13.60
2020,09,30,22,21,13.60
2020,09,30,22,22,13.50
2020,09,30,22,23,13.50
2020,09,30,22,24,13.50
2020,09,30,22,25,13.50
2020,09,30,22,26,13.50
2020,09,30,22,27,13.60
2020,09,30,22,28,13.60
2020,09,30,22,29,13.60
2020,09,30,22,30,13.60
2020,09,30,22,31,13.60
2020,09,30,22,32,13.60
2020,09,30,22,33,13.60
2020,09,30,22,34,13.60
2020,09,30,22,35,13.60
2020,09,30,22,36,13.60
2020,09,30,22,37,13.70
2020,09,30,22,38,13.70
2020,09,30,22,39,13.70
2020,09,30,22,40,13.80
2020,09,30,22,41,13.80
2020,09,30,22,42,13.80
2020,09,30,22,43,13.90
2020,09,30,22,44,13.90
2020,09,30,22,45,13.90
2020,09,30,22,46,14.00
2020,09,30,22,47,14.00
2020,09,30,22,48,14.00
2020,09,30,22,49,14.10
2020,09,30,22,50,14.10
2020,09,30,22,51,14.10
2020,09,30,22,52,14.10
2020,09,30,22,53,14.20
2020,09,30,22,54,14.20
2020,09,30,22,55,14.20
2020,09,30,22,56,14.20
2020,09,30,22,57,14.20
2020,09,30,22,58,14.20